Duluth, MN

1:03 AM CDT on June 24, 2017 (GMT -0500)
Duluth International

Weather History for KDLH - June, 2013

Change the Weather History Date:

Wednesday, June 12, 2013

  Actual Average Record
Temperature  
Mean Temperature 66 °F 59 °F  
Max Temperature 82 °F 70 °F 91 °F (1956)
Min Temperature 49 °F 48 °F 31 °F (1962)
Degree Days  
Heating Degree Days 0 7  
Month to date heating degree days 105 96  
Since 1 June heating degree days 105 96  
Since 1 July heating degree days 9325 9361  
Cooling Degree Days 1 1  
Month to date cooling degree days 5 3  
Year to date cooling degree days 6 7  
Since 1 June cooling degree days 5 3  
Growing Degree Days 15 (Base 50)    
Moisture  
Dew Point 47 °F    
Average Humidity 57    
Maximum Humidity 83    
Minimum Humidity 30    
Precipitation  
Precipitation 0.00 in 0.14 in 1.90 in (1885)
Month to date precipitation 1.10 1.53  
Year to date precipitation 14.44 10.45  
Snow  
Snow 0.00 in 0.00 in 0.00 in (2002)
Month to date snowfall 0.0 0.0  
Since 1 June snowfall 0.0 0.0  
Since 1 July snowfall 129.4 86.1  
Snow Depth 0.00 in    
Sea Level Pressure  
Sea Level Pressure 29.88 in    
Wind  
Wind Speed 6 mph (NNW)    
Max Wind Speed 17 mph    
Max Gust Speed 23 mph    
Visibility 10 miles    
Events      
T = Trace of Precipitation, MM = Missing Value Source: NWS Daily Summary

Daily Weather History Graph

Daily Weather History Graph

Search for Another Location

Airport or City:

Trip Planner

Search our weather history database for the weather conditions in past years. The results will help you decide how hot, cold, wet, or windy it might be!

Date:

Astronomy

Jun. 12, 2013 Rise Set
Actual Time 5:14 AM CDT 9:03 PM CDT
Civil Twilight 4:34 AM CDT 9:43 PM CDT
Nautical Twilight 3:41 AM CDT 10:36 PM CDT
Astronomical Twilight 2:23 AM CDT 11:55 PM CDT
Moon 9:04 AM CDT (6/12) 11:26 PM CDT (6/12)
Length of Visible Light 17h 08m
Length of Day
15h 49m
Waxing Crescent, 14% of the Moon is Illuminated
Jun 12
Waxing Crescent
Jun 16
First Quarter
Jun 23
Full
Jun 29
Last Quarter
Jul 8
New

Hourly Weather History & Observations

Time (CDT) Temp. Dew Point Humidity Pressure Visibility Wind Dir Wind Speed Gust Speed Precip Events Conditions
12:55 AM 55.0 °F 48.0 °F 77% 29.91 in 10.0 mi ENE 3.5 mph - N/A   Partly Cloudy
1:55 AM 55.9 °F 48.0 °F 75% 29.89 in 10.0 mi Calm Calm - N/A   Clear
2:55 AM 54.0 °F 46.9 °F 77% 29.90 in 10.0 mi West 3.5 mph - N/A   Clear
3:55 AM 53.1 °F 46.0 °F 77% 29.90 in 10.0 mi Calm Calm - N/A   Clear
4:55 AM 51.1 °F 46.0 °F 83% 29.88 in 10.0 mi Calm Calm - N/A   Partly Cloudy
5:55 AM 54.0 °F 46.9 °F 77% 29.90 in 10.0 mi Calm Calm - N/A   Clear
6:55 AM 62.1 °F 52.0 °F 70% 29.89 in 10.0 mi Calm Calm - N/A   Clear
7:55 AM 70.0 °F 48.9 °F 47% 29.88 in 10.0 mi SW 4.6 mph - N/A   Clear
8:55 AM 73.0 °F 48.0 °F 41% 29.87 in 10.0 mi South 6.9 mph - N/A   Clear
9:55 AM 77.0 °F 46.9 °F 34% 29.88 in 10.0 mi WSW 5.8 mph - N/A   Clear
10:55 AM 77.0 °F 46.0 °F 33% 29.87 in 10.0 mi Calm Calm - N/A   Clear
11:55 AM 79.0 °F 46.0 °F 31% 29.86 in 10.0 mi NW 4.6 mph - N/A   Partly Cloudy
12:55 PM 80.1 °F 46.9 °F 31% 29.85 in 10.0 mi Variable 3.5 mph - N/A   Partly Cloudy
1:55 PM 80.1 °F 46.9 °F 31% 29.84 in 10.0 mi NNW 9.2 mph 16.1 mph N/A   Scattered Clouds
2:55 PM 81.0 °F 48.9 °F 33% 29.84 in 10.0 mi NNW 10.4 mph - N/A   Mostly Cloudy
3:55 PM 78.1 °F 48.0 °F 35% 29.83 in 10.0 mi North 10.4 mph 21.9 mph N/A   Scattered Clouds
4:55 PM 77.0 °F 48.0 °F 36% 29.84 in 10.0 mi North 9.2 mph - N/A   Partly Cloudy
5:55 PM 77.0 °F 48.0 °F 36% 29.84 in 10.0 mi North 9.2 mph - N/A   Partly Cloudy
6:55 PM 73.9 °F 46.0 °F 37% 29.85 in 10.0 mi North 15.0 mph 23.0 mph N/A   Partly Cloudy
7:55 PM 71.1 °F 46.0 °F 41% 29.88 in 10.0 mi North 8.1 mph 21.9 mph N/A   Partly Cloudy
8:55 PM 68.0 °F 46.0 °F 45% 29.89 in 10.0 mi NNW 9.2 mph - N/A   Partly Cloudy
9:55 PM 66.0 °F 46.0 °F 48% 29.91 in 10.0 mi North 5.8 mph - N/A   Partly Cloudy
10:55 PM 63.0 °F 46.0 °F 54% 29.93 in 10.0 mi NNW 6.9 mph - N/A   Partly Cloudy
11:55 PM 61.0 °F 46.0 °F 58% 29.94 in 10.0 mi NNW 6.9 mph - N/A   Partly Cloudy